DL4LAM-15 Weather Reports


time (UTC)temp
F
wind
direction
speed
knots
gust
knots
rain 1hr
in
rain 24hr
in
rain mn
in
humidity
%
barometer
mb
20260507093516 48 68 1.7 5.2 0.00 0.45 0.14 96 1014.1
20260507093017 48 68 0.9 6.1 0.00 0.45 0.14 96 1014.0
20260507092016 48 45 0.9 4.3 0.00 0.45 0.14 96 1013.9
20260507091516 48 68 1.7 3.5 0.00 0.45 0.14 96 1013.9
20260507090516 48 90 0.9 5.2 0.00 0.46 0.14 96 1013.8
20260507090016 48 68 0.9 3.5 0.01 0.46 0.14 96 1013.8
20260507085516 48 0.0 1.7 0.01 0.46 0.14 96 1013.8
20260507084516 47 0.0 2.6 0.01 0.46 0.14 96 1013.7
20260507084016 47 0.0 1.7 0.01 0.47 0.14 96 1013.6
20260507083017 47 0.0 2.6 0.01 0.48 0.14 96 1013.5
20260507082516 47 0.0 3.5 0.01 0.48 0.14 97 1013.5
20260507081016 47 68 0.9 3.5 0.01 0.50 0.14 97 1013.3
20260507080516 47 0.0 1.7 0.01 0.50 0.14 97 1013.2
20260507080016 47 0.0 1.7 0.00 0.49 0.13 97 1013.1
20260507075016 47 68 0.9 6.1 0.00 0.49 0.13 97 1013.1
20260507074516 47 0.0 2.6 0.00 0.50 0.13 97 1013.0
20260507074016 47 90 0.9 4.3 0.00 0.50 0.13 97 1013.0
20260507073516 47 45 1.7 4.3 0.00 0.50 0.13 97 1012.9
20260507073017 47 45 0.9 2.6 0.00 0.50 0.13 97 1012.9
20260507072516 47 68 0.9 3.5 0.00 0.50 0.13 97 1012.9
20260507072016 47 0.0 1.7 0.00 0.50 0.13 97 1012.8
20260507071516 47 68 0.9 3.5 0.00 0.50 0.13 97 1012.7
20260507071017 47 68 0.9 5.2 0.00 0.51 0.13 97 1012.6
20260507070516 47 68 0.9 2.6 0.00 0.51 0.13 97 1012.6
20260507070036 47 68 0.9 3.5 0.00 0.52 0.13 97 1012.6
20260507065016 47 68 0.9 4.3 0.00 0.52 0.13 97 1012.5
20260507064516 47 0.0 1.7 0.00 0.52 0.13 97 1012.5
20260507064016 47 68 1.7 6.1 0.00 0.53 0.13 97 1012.5
20260507063516 47 68 0.9 6.1 0.00 0.54 0.13 97 1012.4
20260507063016 47 68 1.7 7.0 0.00 0.54 0.13 97 1012.3
20260507062517 47 68 1.7 6.1 0.00 0.54 0.13 97 1012.2
20260507062016 47 68 1.7 8.7 0.00 0.54 0.13 97 1012.2
20260507061516 47 0.0 2.6 0.00 0.54 0.13 97 1012.0
20260507061016 47 68 0.9 4.3 0.00 0.55 0.13 97 1012.0
20260507060516 47 45 0.9 2.6 0.00 0.55 0.13 97 1011.9
20260507060018 47 0.0 0.9 0.00 0.55 0.13 97 1011.8
20260507055516 47 0.0 0.9 0.00 0.56 0.13 97 1011.8
20260507055016 47 0.0 2.6 0.00 0.57 0.13 97 1011.7
20260507054516 47 0.0 2.6 0.00 0.57 0.13 97 1011.7
20260507054017 47 45 1.7 6.1 0.00 0.57 0.13 97 1011.5
20260507053516 47 0.0 2.6 0.00 0.57 0.13 97 1011.5
20260507052517 47 0.0 1.7 0.00 0.58 0.13 97 1011.4
20260507052016 47 0 0.9 2.6 0.01 0.58 0.13 97 1011.4
20260507051517 47 68 0.9 6.1 0.01 0.58 0.13 97 1011.4
20260507051016 47 90 0.9 3.5 0.01 0.59 0.13 97 1011.2
20260507050516 47 0.0 3.5 0.01 0.59 0.13 97 1011.3
20260507050016 47 68 0.9 3.5 0.01 0.60 0.13 97 1011.1
20260507044516 48 68 0.9 3.5 0.02 0.61 0.13 97 1010.9
20260507044016 48 23 0.9 3.5 0.02 0.61 0.13 97 1010.9
20260507043516 48 68 0.9 7.8 0.02 0.61 0.13 97 1010.8
20260507043016 48 68 0.9 7.8 0.02 0.62 0.13 97 1010.8
20260507042516 48 68 0.9 6.1 0.02 0.63 0.13 97 1010.7
20260507042016 48 0.0 1.7 0.01 0.62 0.13 97 1010.7
20260507041516 48 0.0 4.3 0.01 0.62 0.13 97 1010.6
20260507041016 48 0.0 2.6 0.01 0.63 0.13 97 1010.6
20260507040516 48 338 0.9 2.6 0.01 0.64 0.13 97 1010.6
20260507040016 48 0.0 2.6 0.01 0.64 0.13 97 1010.5
20260507035516 48 90 0.9 4.3 0.01 0.65 0.13 97 1010.5
20260507034516 48 0.0 1.7 0.00 0.65 0.12 97 1010.4
20260507034016 48 0.0 2.6 0.00 0.65 0.12 97 1010.3
20260507033516 48 45 0.9 5.2 0.00 0.66 0.12 97 1010.3
20260507032516 48 0.0 2.6 0.00 0.67 0.12 97 1010.2
20260507031516 48 0.0 1.7 0.00 0.69 0.12 97 1010.2
20260507031016 48 45 0.9 2.6 0.00 0.70 0.12 97 1010.1
20260507030016 48 0.0 2.6 0.00 0.71 0.12 97 1010.1
20260507025516 48 0.0 2.6 0.00 0.72 0.12 97 1010.1
20260507025016 48 0.0 2.6 0.01 0.72 0.12 97 1010.0
20260507024516 48 0.0 3.5 0.01 0.72 0.12 97 1010.0
20260507024016 48 0.0 0.9 0.01 0.73 0.12 97 1010.0
20260507023015 48 0.0 0.9 0.02 0.75 0.12 97 1009.9
20260507022516 48 0.0 2.6 0.02 0.76 0.12 97 1009.9
20260507022015 48 0.0 0.9 0.02 0.77 0.12 97 1009.9
20260507021516 48 0.0 0.9 0.02 0.79 0.12 97 1009.9
20260507021016 48 0.0 2.6 0.02 0.79 0.12 97 1009.9
20260507020516 48 0.0 1.7 0.02 0.80 0.12 97 1009.8
20260507020016 48 0.0 0.9 0.02 0.80 0.12 97 1009.7
20260507015516 48 0.0 0.0 0.02 0.80 0.12 97 1009.7
20260507015016 48 0.0 1.7 0.01 0.80 0.11 97 1009.7
20260507012016 48 0.0 1.7 0.01 0.83 0.10 97 1009.5
20260507011515 48 0.0 2.6 0.01 0.83 0.10 97 1009.5
20260507010516 48 0.0 1.7 0.02 0.84 0.10 97 1009.5
20260507010016 48 0.0 0.9 0.02 0.85 0.10 97 1009.6
20260507005517 48 0.0 2.6 0.02 0.85 0.10 97 1009.6
20260507005018 48 0.0 1.7 0.02 0.85 0.10 97 1009.5
20260507004538 48 0.0 1.7 0.02 0.86 0.10 97 1009.4
20260507003518 48 0.0 0.9 0.02 0.87 0.10 97 1009.4
20260507003017 48 0.0 3.5 0.01 0.87 0.09 97 1009.4
20260507002018 49 0.0 1.7 0.02 0.88 0.09 97 1009.3
20260507001018 49 0.0 2.6 0.02 0.89 0.09 97 1009.3
20260507000517 49 0.0 4.3 0.02 0.89 0.09 97 1009.2
20260507000018 49 0.0 0.9 0.02 0.90 0.09 97 1009.3
20260506235518 49 0.0 0.9 0.02 0.90 0.09 97 1009.2
20260506235017 49 0.0 3.5 0.02 0.91 0.09 97 1009.3
20260506234517 49 0.0 3.5 0.03 0.91 0.09 97 1009.2
20260506234017 49 45 0.9 4.3 0.03 0.91 0.09 97 1009.2
20260506233018 49 0.0 0.9 0.05 0.91 0.09 97 1009.1
20260506232018 49 68 0.9 3.5 0.06 0.91 0.08 97 1009.0
20260506231538 49 45 0.9 4.3 0.06 0.91 0.08 97 1009.0
20260506230018 49 23 0.9 4.3 0.07 0.90 0.07 97 1008.9
20260506225518 49 68 0.9 6.1 0.07 0.89 0.06 97 1008.9
20260506225017 49 23 0.9 7.0 0.08 0.89 0.06 97 1008.9
20260506224517 49 68 0.9 4.3 0.08 0.88 0.06 97 1008.8
20260506224018 49 68 0.9 3.5 0.08 0.88 0.06 97 1008.8
20260506223018 49 68 1.7 3.5 0.08 0.87 0.04 97 1008.7
20260506222517 50 45 0.9 4.3 0.06 0.85 0.02 97 1008.6
20260506222017 50 45 0.9 4.3 0.06 0.85 0.02 97 1008.7
20260506221517 50 0.0 1.7 0.06 0.84 0.02 97 1008.6
20260506221018 50 0.0 1.7 0.05 0.83 0.01 97 1008.6
20260506220518 50 0.0 1.7 0.04 0.83 0.00 97 1008.6
20260506220017 50 23 0.9 2.6 0.04 0.83 0.83 97 1008.6
20260506215517 50 0.0 0.9 0.04 0.82 0.82 97 1008.6
20260506215016 50 68 0.9 2.6 0.03 0.81 0.81 97 1008.6
20260506214017 50 0.0 2.6 0.03 0.80 0.80 97 1008.5
20260506213516 50 0.0 0.9 0.02 0.80 0.80 97 1008.5
20260506213016 50 45 0.9 3.5 0.02 0.79 0.79 97 1008.4
20260506212517 50 0.0 2.6 0.02 0.79 0.79 97 1008.4
20260506212017 50 0.0 3.5 0.02 0.79 0.79 97 1008.4
20260506211516 50 68 0.9 6.1 0.02 0.79 0.79 97 1008.3
20260506211016 50 45 0.9 4.3 0.03 0.79 0.79 97 1008.2
20260506210517 50 270 0.9 3.5 0.03 0.80 0.79 97 1008.1
20260506210018 50 0.0 2.6 0.03 0.80 0.79 97 1008.1
20260506205516 50 68 0.9 4.3 0.02 0.79 0.78 97 1008.1
20260506205038 50 0.0 3.5 0.02 0.79 0.78 97 1008.1
20260506204516 50 68 0.9 6.1 0.02 0.79 0.78 97 1008.1
20260506204016 50 0.0 3.5 0.02 0.78 0.77 97 1008.1
20260506203516 50 45 1.7 5.2 0.02 0.78 0.77 97 1008.1
20260506203017 50 45 0.9 4.3 0.02 0.78 0.77 97 1008.0
20260506202516 50 45 0.9 4.3 0.02 0.78 0.77 97 1008.0
20260506202016 50 68 0.9 4.3 0.02 0.77 0.76 97 1008.1
20260506201516 50 0.0 1.7 0.02 0.77 0.76 97 1008.0
20260506201016 50 23 0.9 7.0 0.02 0.76 0.76 97 1008.0
20260506200516 50 45 1.7 7.0 0.02 0.76 0.76 97 1007.9
20260506195517 50 0.0 2.6 0.03 0.76 0.76 97 1007.9
20260506195017 50 248 0.9 5.2 0.03 0.76 0.76 97 1007.8
20260506193516 50 0.0 2.6 0.02 0.76 0.75 97 1007.7
20260506193017 50 23 0.9 5.2 0.03 0.76 0.75 97 1007.6
20260506192516 50 270 0.9 3.5 0.04 0.76 0.75 97 1007.6
20260506191016 50 0.0 1.7 0.03 0.75 0.74 97 1007.4
20260506190516 50 0.0 3.5 0.04 0.75 0.74 97 1007.3
20260506190018 50 0.0 2.6 0.04 0.74 0.73 97 1007.3
20260506185516 50 270 0.9 2.6 0.03 0.73 0.72 97 1007.3
20260506185016 50 0.0 1.7 0.03 0.73 0.72 97 1007.2
20260506184516 50 0.0 3.5 0.03 0.73 0.72 97 1007.2
20260506184016 50 0.0 2.6 0.03 0.73 0.72 97 1007.2
20260506183016 50 0.0 3.5 0.02 0.72 0.72 96 1007.1
20260506182516 50 0.0 3.5 0.02 0.72 0.71 96 1007.1
20260506181516 50 45 0.9 5.2 0.02 0.72 0.71 96 1007.0
20260506181016 50 0.0 3.5 0.02 0.72 0.71 96 1006.9
20260506180516 50 0.0 2.6 0.02 0.71 0.70 96 1006.9
20260506180017 50 0.0 2.6 0.01 0.70 0.69 96 1006.9
20260506175517 50 248 0.9 3.5 0.02 0.70 0.69 96 1006.9
20260506175016 50 248 0.9 5.2 0.02 0.70 0.69 96 1006.8
20260506174016 50 270 0.9 3.5 0.02 0.70 0.69 97 1006.9
20260506173516 50 293 0.9 5.2 0.02 0.70 0.69 97 1006.9
20260506172517 50 0.0 2.6 0.02 0.70 0.69 97 1006.8
20260506172016 50 270 0.9 3.5 0.02 0.70 0.69 96 1006.8
20260506171516 50 0.0 1.7 0.02 0.69 0.69 96 1006.8
20260506171017 50 315 0.9 3.5 0.02 0.69 0.69 96 1006.7
20260506170516 50 45 0.9 3.5 0.02 0.69 0.69 96 1006.5
20260506170016 50 0.0 1.7 0.02 0.69 0.69 96 1006.6
20260506165516 50 0.0 0.9 0.02 0.69 0.68 96 1006.6
20260506165016 50 0.0 0.0 0.02 0.69 0.68 96 1006.7
20260506164517 50 0.0 1.7 0.03 0.69 0.68 96 1006.7
20260506163516 50 0.0 1.7 0.03 0.68 0.67 96 1006.7
20260506163016 50 293 0.9 3.5 0.04 0.68 0.67 96 1006.8
20260506162516 50 0.0 1.7 0.04 0.68 0.67 96 1006.7
20260506162016 51 248 0.9 5.2 0.04 0.68 0.67 96 1006.6
20260506161517 51 0.0 1.7 0.03 0.67 0.66 96 1006.5
20260506161016 51 0.0 1.7 0.03 0.67 0.66 96 1006.5
20260506160516 51 0.0 0.9 0.03 0.67 0.66 96 1006.5
20260506160016 51 68 0.9 4.3 0.03 0.67 0.66 96 1006.5
20260506155516 51 0.0 2.6 0.03 0.67 0.66 96 1006.5
20260506154516 51 0.0 2.6 0.02 0.65 0.65 96 1006.5
20260506154016 51 270 0.9 3.5 0.02 0.65 0.65 96 1006.5
20260506153516 51 0.0 3.5 0.01 0.65 0.64 96 1006.5
20260506153016 51 0.0 3.5 0.01 0.64 0.63 96 1006.5
20260506152517 51 0.0 0.9 0.01 0.64 0.63 96 1006.6
20260506152016 51 0.0 2.6 0.01 0.64 0.63 96 1006.5
20260506151516 51 0.0 0.9 0.01 0.64 0.63 96 1006.5
20260506151016 51 0.0 1.7 0.02 0.64 0.63 96 1006.5
20260506150516 51 0.0 0.0 0.02 0.64 0.63 97 1006.4
20260506150016 51 0.0 1.7 0.02 0.64 0.63 97 1006.4
20260506145016 51 0.0 2.6 0.02 0.64 0.63 96 1006.4
20260506144516 51 0.0 1.7 0.03 0.64 0.63 96 1006.4
20260506144016 51 0.0 3.5 0.03 0.64 0.63 96 1006.3
20260506143516 51 0.0 3.5 0.04 0.64 0.63 96 1006.3
20260506143016 51 225 0.9 3.5 0.03 0.63 0.62 96 1006.3
20260506142516 51 270 0.9 5.2 0.04 0.63 0.62 96 1006.3
20260506142016 51 0.0 1.7 0.04 0.63 0.62 96 1006.3
20260506141516 51 68 0.9 3.5 0.04 0.63 0.62 96 1006.4
20260506140516 51 0.0 2.6 0.03 0.62 0.61 96 1006.4
20260506140016 51 23 0.9 4.3 0.03 0.62 0.61 96 1006.4
20260506135516 51 0.0 0.9 0.03 0.61 0.61 96 1006.5
20260506135018 51 0.0 2.6 0.03 0.61 0.61 96 1006.4
20260506134517 51 68 0.9 2.6 0.03 0.61 0.60 96 1006.4
20260506134016 51 23 0.9 4.3 0.03 0.61 0.60 96 1006.4
20260506133516 50 68 0.9 3.5 0.02 0.60 0.59 96 1006.5
20260506133016 50 68 0.9 6.1 0.02 0.60 0.59 96 1006.4
20260506132516 50 68 0.9 4.3 0.02 0.59 0.58 96 1006.5
20260506132016 50 90 0.9 6.1 0.02 0.59 0.58 96 1006.4
20260506131536 51 0.0 2.6 0.02 0.59 0.58 96 1006.3
20260506130516 51 68 1.7 5.2 0.02 0.59 0.58 96 1006.2
20260506130016 51 0.0 1.7 0.02 0.59 0.58 96 1006.2
20260506125516 50 68 0.9 7.8 0.02 0.58 0.57 96 1006.2
20260506125016 51 68 1.7 7.8 0.02 0.58 0.57 96 1006.2
20260506124516 51 68 0.9 2.6 0.02 0.57 0.57 96 1006.2
20260506124016 50 68 0.9 3.5 0.02 0.57 0.57 96 1006.3
20260506123016 51 45 1.7 7.0 0.02 0.57 0.57 96 1006.2
20260506122016 50 68 0.9 4.3 0.02 0.57 0.57 96 1006.1
20260506121517 50 0 0.9 2.6 0.03 0.57 0.57 96 1006.1
20260506121016 50 0.0 2.6 0.03 0.57 0.57 96 1006.1
20260506120516 50 68 1.7 7.0 0.02 0.57 0.56 96 1006.1
20260506120016 50 68 1.7 6.1 0.02 0.57 0.56 96 1006.0
20260506115516 50 45 0.9 6.1 0.02 0.57 0.56 96 1006.0
20260506114516 50 90 1.7 5.2 0.02 0.56 0.55 96 1006.1
20260506114017 50 68 2.6 6.1 0.02 0.56 0.55 96 1006.1
20260506113016 50 45 1.7 7.0 0.02 0.56 0.55 96 1006.1
20260506112516 50 45 0.9 4.3 0.02 0.55 0.54 96 1006.1
20260506112016 50 68 1.7 6.1 0.02 0.55 0.54 96 1006.2
20260506111516 49 0.0 1.7 0.01 0.54 0.54 96 1006.1
20260506111017 49 68 1.7 7.0 0.01 0.54 0.54 96 1006.2
20260506110516 49 68 1.7 4.3 0.01 0.54 0.54 96 1006.1
20260506110016 49 68 1.7 6.1 0.01 0.54 0.54 96 1006.1
20260506105516 49 0.0 1.7 0.01 0.54 0.54 96 1006.2
20260506105016 49 68 1.7 4.3 0.01 0.54 0.54 96 1006.1
20260506104516 49 68 1.7 7.0 0.00 0.54 0.53 96 1006.1
20260506104016 49 68 1.7 7.0 0.01 0.54 0.53 96 1006.1
20260506103516 49 68 0.9 7.0 0.01 0.54 0.53 96 1006.1
20260506103017 49 68 1.7 7.0 0.01 0.54 0.53 96 1006.1
20260506102016 49 0.0 2.6 0.01 0.54 0.53 96 1006.0
20260506101516 49 68 0.9 4.3 0.01 0.54 0.53 96 1006.1
20260506100516 49 45 0.9 4.3 0.02 0.54 0.53 96 1006.0
20260506100036 49 0.0 2.6 0.02 0.54 0.53 96 1006.0
20260506095516 48 45 0.9 4.3 0.02 0.54 0.53 96 1006.0
20260506095016 48 45 0.9 2.6 0.02 0.54 0.53 96 1006.0
20260506094516 48 68 0.9 3.5 0.02 0.54 0.53 96 1006.0
20260506094016 48 0.0 3.5 0.02 0.53 0.52 96 1006.0